GPS BIIF-12 (41328 NORAD) Tracking and Keplerian Element Data

This shows tracking and keplerian element data for the satellite.

Feedback or suggestion? Click here.




ElementValue
Catalog41328
NameGPS BIIF-12
Epoch Orbit6100
Epoch Day159.46775371
Epoch Year2024
RAAN118.8368
Inclination55.1229
Eccentricity0.0079811
Argument of Perigee238.891
Mean Anonmoly120.2787
Mean Motion2.00562375
Decay Rate-8E-08
L11 41328U 16007A 24159.46775371 -.00000008 00000+0 00000+0 0 9990
L22 41328 55.1229 118.8368 0079811 238.8910 120.2787 2.00562375 61000



Live tracking and technical data element details for GPS BIIF-12 (NORAD 41328). GPS BIIF-12 can be tracked NOW for your location showing map with azimuth and elevation plus other details from your city location.







IsCatalogInMostPopularTable: catalog: 41328, numindb: 606
Update: records affected: 1



GetName: 41328 GPS BIIF-12

Hit Count: updated at: Fri, 14 Jun 2024 18:19:25 GMT